Location: Mason
(37.5237°N, 89.2543°W)
Time: 08:14:34
(UTC+00:00)

FALCON 9 DEB - Pass Details

Date: 24 January 2021
Orbit: 376 x 388 km, 53.0° (Epoch: 08 March)

Event Time Altitude Azimuth Distance (km) Brightness Sun altitude
Exits shadow 12:17:44 - 232° (SW) 1,983 6.1 -9.9°
Reaches altitude 10° 12:19:08 10° 235° (SW) 1,403 5.3 -9.6°
Maximum altitude 12:22:15 68° 318° (NW) 415 2.8 -9.0°
Drops below altitude 10° 12:25:22 10° 43° (NE) 1,402 6.1 -8.4°
Sets 12:27:26 0° 46° (NE) 2,254 7.2 -8.0°
